sat.trackr.live / text

‹ back to catalog

NINGXIA-1 4

NORAD 44782 · 2019-076D

PAYLOAD ACTIVE UNKNOWN

§ Identity

Operator
Country
PRC
Launch date
2019-11-13
Launch site
TAISC
Launch vehicle
Mass (kg)
RCS (m²)

External: N2YO · Heavens-Above · Gunter

§ Orbital elements

Epoch: 2026-09-20T04:37:54.767136Z

Period
102.71 min
Inclination
45.0070°
Eccentricity
0.0013036
Mean motion
14.01997740 rev/d
Perigee alt
877.4 km
Apogee alt
896.4 km
Semi-major
7,265.0 km
B*
-3.7608e-5
RAAN
115.2660°
Arg perigee
213.8942°
Mean anomaly
146.1060°
Rev number
35,115

§ Raw data

NINGXIA-1 41 44782U 19076D   26263.19299499 -.00000187  00000+0 -37608-4 0  99942 44782  45.0070 115.2660 0013036 213.8942 146.1060 14.01997740351151

JSON: /api/v1/satellites/44782 · /tle

For live sub-satellite position, see the globe view (requires WebGL).

§ Visibility from observer

Set your observer location to see the next 7 days of passes ≥ 10°. The values pass through the URL so the page stays shareable.

No JS? Fill the form by hand. The geolocation button needs JavaScript.